CAPE
31 114 194 260 364 291 238 245 149 122 69 14 1 0 0 5 128 541 733 664 861 813 856 875 786 822 1091 987 794 684 349 335 248 18 0 3 0 0 0 0 0 0 0
7 27 119 195 158 253 251 197 93 13 15 0 0 0 0 0 0 25 263 369 500 711 653 684 859 785 788 1004 896 712 510 445 385 7 0 0 0 0 0 0 0 0 0
0 4 67 249 211 235 283 277 86 0 0 0 0 0 0 0 0 0 0 71 306 593 645 672 680 629 672 829 951 771 605 357 242 22 0 0 0 2 1 0 0 6 0
2 2 49 151 149 151 164 188 110 9 0 0 0 0 0 0 0 0 0 0 63 237 675 627 644 583 675 694 872 852 447 302 128 0 0 0 0 0 2 0 0 5 0
9 25 28 24 15 69 129 65 66 61 38 9 0 0 0 0 0 0 0 0 0 177 361 584 621 746 670 603 685 721 509 250 79 0 0 0 0 3 0 0 3 5 6
9 36 56 46 38 77 155 100 130 84 40 55 0 0 0 0 0 0 0 0 0 6 285 409 609 582 532 551 430 541 557 382 29 0 0 0 0 0 0 2 2 2 1
4 4 4 2 1 6 9 10 26 40 110 159 150 58 31 3 0 0 0 0 0 0 74 443 439 375 495 566 402 271 321 124 0 0 0 0 0 0 0 0 2 0 0
0 0 0 0 0 0 0 0 0 35 70 146 201 133 53 24 0 0 0 0 0 0 0 182 453 406 485 480 603 344 266 30 0 0 0 0 0 0 0 0 1 0 0
0 0 0 0 0 0 0 0 0 1 17 46 32 17 19 14 1 0 0 0 0 0 0 95 387 425 439 409 583 411 67 1 0 0 0 0 0 0 0 0 0 0 0
0 0 0 0 0 0 0 1 5 0 1 9 15 30 23 14 17 4 0 0 0 0 0 62 178 300 353 415 569 100 4 1 0 0 0 0 0 0 0 0 0 0 0
0 0 2 6 6 15 12 36 63 36 38 36 28 26 30 37 27 4 0 0 0 0 0 1 173 262 167 283 321 4 0 0 0 0 0 0 0 0 0 0 0 0 0
1 3 0 0 4 4 24 21 13 23 37 33 22 13 26 24 16 1 0 0 0 0 0 0 154 342 68 162 5 0 0 0 0 0 0 0 0 0 0 0 0 0 0
1 1 2 4 3 2 14 3 25 25 38 30 32 23 18 14 5 0 0 0 0 0 0 4 275 63 0 0 0 0 0 0 0 0 0 0 0 0 0 0 0 0 0
0 0 3 1 0 0 1 5 15 9 30 29 24 23 16 11 7 146 57 2 0 0 0 0 0 0 0 1 0 0 1 0 0 0 0 0 0 0 0 0 0 0 0
3 4 3 2 3 3 3 3 0 1 10 31 29 36 22 16 14 10 23 79 272 42 2 0 0 1 5 3 3 2 2 0 0 0 0 0 0 0 0 0 0 0 0
3 3 3 3 4 5 6 4 1 0 0 0 0 4 5 2 0 0 4 9 142 8 0 1 1 4 3 3 3 3 2 1 0 0 0 0 0 0 0 0 0 0 0
2 2 2 3 4 4 5 6 5 2 0 0 0 0 0 0 0 0 0 0 0 0 0 3 4 5 4 3 2 1 2 3 2 0 0 0 0 0 0 0 0 0 0
3 1 1 2 3 4 4 5 5 4 4 3 0 0 0 0 0 0 0 0 0 1 6 3 4 6 3 2 2 1 0 0 0 0 0 0 0 0 0 0 0 0 0
3 5 5 4 2 2 4 3 3 3 4 4 4 2 0 0 0 0 0 0 2 1 6 2 3 2 3 2 2 0 0 0 0 0 0 0 0 0 0 0 0 0 0
3 2 2 3 5 4 2 2 3 4 3 4 5 2 8 0 0 1 1 3 3 2 1 2 2 2 2 0 0 0 0 0 0 0 0 0 0 0 0 0 0 0 0
5 5 3 3 4 4 5 2 2 3 4 4 2 2 0 0 0 1 0 0 2 2 1 2 2 1 0 0 0 0 0 0 0 0 0 0 0 0 0 0 0 0 0
4 5 4 3 3 5 5 4 3 3 3 6 1 0 0 1 4 4 5 3 2 2 1 2 1 1 0 0 0 0 0 0 0 0 0 0 0 0 0 0 0 0 0
6 7 6 5 3 4 4 5 3 2 3 0 0 1 3 6 3 4 4 3 2 1 1 1 1 1 0 0 0 0 0 0 0 0 0 0 0 0 0 0 0 0 0
3 3 2 3 3 3 1 1 13 2 0 1 3 4 4 3 2 3 0 1 1 1 1 1 1 1 0 1 0 0 0 1 0 0 0 0 0 0 0 0 0 0 0
3 2 9 6 1 1 1 0 0 1 2 0 3 5 4 2 1 1 1 2 1 1 1 1 1 0 0 0 0 0 0 0 0 0 0 0 0 0 0 0 0 0 0
3 1 1 1 2 1 1 1 2 3 3 4 3 1 2 2 1 1 1 2 1 1 1 1 0 0 0 0 0 0 0 0 0 0 0 0 0 0 0 0 0 0 0
CIN
-52 -53 -53 -54 -71 -76 -82 -88 -100 -117 -142 -196 -73 0 0 -73 -129 -5 -2 -5 -3 -4 -5 -9 -5 -5 -1 -2 -4 -9 -22 -16 -7 -53 0 -65 0 0 0 -1 0 0 0
-43 -49 -55 -57 -63 -74 -93 -88 -90 -137 -158 0 0 0 0 0 0 -215 -27 -3 -1 -2 -5 -3 -5 -3 -3 -4 -4 -7 -8 -17 -19 -32 0 0 0 0 0 0 0 0 0
0 -22 -30 -30 -48 -54 -53 -69 -82 0 0 0 0 0 0 0 0 0 0 -118 -3 -2 -1 -5 -4 -3 -4 -4 -4 -4 -2 -24 -22 -34 0 0 0 -6 -4 0 0 -2 0
-12 -10 -6 -8 -25 -35 -29 -23 -56 -45 0 0 0 0 0 0 0 0 0 0 -106 -8 0 -3 -4 -3 -5 -7 -3 -2 -10 -10 -15 0 0 0 0 -2 0 0 0 -1 0
-2 -4 -2 -9 -10 -14 -8 -15 -31 -38 -52 -61 0 0 0 0 0 0 0 0 0 -32 -3 -1 -2 -2 -4 -3 -9 -4 -5 -11 -31 0 0 0 0 -1 0 -2 -2 -1 -3
-11 -4 -3 -2 -3 -1 0 -7 -13 -33 -48 -52 -1 0 0 0 0 0 0 0 0 -150 -18 -3 -2 -3 -5 -8 -21 -17 -4 -2 -63 -19 0 0 0 0 0 -2 -1 0 -1
-4 -3 -3 -2 -2 -8 -9 -18 -26 -31 -24 -30 -41 -58 -74 -26 0 0 0 0 0 0 -151 -5 -3 -6 -2 -2 -30 -44 -12 -53 0 0 0 0 0 0 0 0 -1 0 0
0 0 0 0 0 0 0 0 0 -19 -16 -12 -15 -27 -48 -91 0 0 0 0 0 0 0 -65 -1 -4 -4 -3 -1 -43 -40 -55 0 0 0 0 0 0 0 0 -1 0 0
0 0 0 0 0 0 0 0 0 -7 -32 -25 -28 -41 -42 -64 -3 0 0 0 0 0 0 -140 -1 -3 -8 -16 -2 -7 -75 0 0 0 0 0 0 0 0 0 0 0 0
0 0 0 0 0 0 0 0 -2 0 0 0 -1 -2 -2 -1 -2 -7 0 0 0 0 0 -150 -44 -6 -12 -12 -2 -54 -68 0 0 0 0 0 0 0 0 0 0 0 0
0 -1 -3 -3 -3 -3 -7 -6 -1 -3 -2 -3 -2 -2 -3 -1 -1 -2 -1 0 0 0 0 -24 -44 -12 -51 -43 -26 -12 0 0 0 0 0 0 0 0 0 0 0 0 0
-2 -2 -1 0 -2 -1 -2 -2 -1 -2 -2 -1 -1 -2 -1 -1 -3 -1 0 0 0 0 0 0 -60 -18 -108 -62 -18 0 0 0 0 0 0 0 0 0 0 0 0 0 0
-1 -2 -1 -3 -1 -8 -1 -6 0 -1 -1 0 0 0 -1 -1 -4 0 0 0 0 0 0 -2 -24 -132 -20 0 0 0 0 0 0 0 0 0 0 0 0 0 0 0 0
0 0 0 0 0 0 -4 -1 0 -4 -1 -1 0 0 0 -1 -1 -5 -66 -21 0 0 0 0 0 0 0 0 0 0 0 0 0 0 -2 0 0 0 0 0 0 0 0
0 0 0 0 0 0 0 -1 0 0 0 0 -1 0 -1 -1 -3 -68 -79 -49 -7 -120 -14 0 0 0 0 0 0 0 0 0 0 0 0 0 0 0 0 0 0 0 0
0 0 0 0 0 0 0 0 -1 0 0 0 -2 -7 -3 -2 0 0 -65 -89 -57 -188 0 0 0 0 0 0 0 0 0 0 0 0 0 0 0 0 0 0 0 0 0
0 0 0 0 0 0 0 0 0 0 -1 0 0 0 0 0 0 0 0 0 -3 -3 0 0 0 0 0 0 0 0 0 0 0 0 0 0 0 0 0 0 0 0 0
0 0 0 0 0 0 0 0 0 0 0 0 0 0 0 0 0 0 0 0 0 -9 -54 0 0 0 0 0 0 0 0 0 0 0 0 0 0 0 0 0 0 0 0
0 0 0 0 0 0 0 0 0 0 0 0 0 -1 0 0 0 0 0 0 0 0 -2 0 0 0 0 0 0 0 0 0 0 0 0 0 0 0 0 0 0 0 0
0 0 0 0 0 0 0 0 0 0 0 0 0 0 -1 0 0 0 0 0 0 0 0 0 0 0 0 0 0 0 0 0 0 0 0 0 0 0 0 0 0 0 0
0 0 0 0 0 0 0 0 0 0 0 0 0 0 0 0 0 0 0 0 0 0 0 0 0 0 0 0 0 0 0 0 0 0 0 0 0 0 0 0 0 0 0
0 0 0 0 0 0 0 0 0 0 0 0 -1 0 0 0 0 0 0 0 0 0 0 0 0 0 0 0 0 0 0 0 0 0 0 0 0 0 0 0 0 0 0
0 0 0 0 0 0 0 0 0 0 0 0 0 0 0 0 0 0 0 0 0 0 0 0 0 0 -1 -1 0 0 0 0 0 0 0 0 0 0 0 0 0 0 0
0 0 0 0 0 0 0 0 -2 -21 0 0 0 0 0 0 0 0 0 0 0 0 0 0 0 0 -2 -2 0 0 0 0 0 0 0 0 0 0 0 0 0 0 0
0 0 -7 -12 0 0 -24 0 0 0 0 0 0 0 0 0 0 0 0 0 0 0 0 0 0 0 0 0 0 0 0 0 0 0 0 0 0 0 0 0 0 0 0
0 0 0 0 0 0 0 0 0 0 0 0 0 0 0 0 0 0 0 0 0 0 0 0 0 0 0 0 0 0 0 0 0 0 0 0 0 0 0 0 0 0 0
Wind_Speed
19 18 18 17 17 16 17 18 20 22 23 24 25 26 27 29 30 34 33 34 36 32 30 34 31 26 26 27 26 26 25 22 25 19 6 3 4 5 5 6 7 10 10
22 22 21 20 18 19 20 20 20 22 24 27 27 28 29 30 31 32 34 33 34 29 35 33 33 31 25 26 25 26 24 22 21 14 10 5 4 6 5 5 5 6 9
29 25 23 22 20 21 20 21 22 23 24 26 29 30 31 32 33 33 35 36 35 32 32 36 33 31 30 25 23 25 25 24 19 15 12 7 3 5 5 5 4 5 7
32 32 27 22 22 22 22 23 24 25 26 28 29 31 32 32 34 35 35 36 36 38 35 34 38 33 31 27 23 23 27 23 17 17 13 8 5 4 7 7 3 3 7
29 29 26 24 22 24 25 26 25 27 28 29 31 32 34 35 34 35 36 36 38 39 40 36 33 33 32 27 22 21 24 25 20 18 14 12 8 6 7 4 3 2 4
31 30 27 25 25 26 27 28 29 30 31 31 32 34 36 38 37 34 35 39 41 42 43 38 36 34 33 31 28 22 23 24 24 21 18 14 12 9 8 5 2 2 2
33 32 31 30 31 32 32 33 34 34 34 36 37 37 38 39 38 38 38 41 41 42 42 41 39 35 33 33 32 28 22 24 23 20 19 15 13 11 9 7 4 2 2
36 35 34 35 36 36 37 38 38 38 39 41 42 43 42 41 41 41 40 41 44 43 42 38 38 37 36 34 35 31 22 25 28 22 18 15 11 12 10 7 4 2 5
39 40 41 42 42 42 41 41 40 41 42 43 43 44 43 41 41 41 41 42 45 43 39 34 33 34 32 33 37 33 28 31 32 25 21 18 12 13 9 8 5 4 1
45 47 46 44 44 44 44 45 44 43 44 43 44 41 40 41 39 39 40 43 46 44 41 36 33 30 31 27 32 31 30 33 30 29 24 17 13 12 11 9 7 5 2
49 50 48 46 46 46 47 45 42 40 41 42 43 41 42 42 42 41 41 43 46 46 43 40 36 32 28 25 25 27 24 28 29 24 20 16 14 12 12 10 7 4 2
51 51 51 49 47 47 46 45 44 42 41 41 42 44 42 42 43 45 47 47 46 47 47 42 38 29 28 25 23 25 21 25 27 23 22 19 16 13 12 13 10 15 2
49 49 47 47 47 47 47 46 44 40 40 41 40 40 40 39 40 40 40 40 44 49 48 44 39 29 29 27 24 20 21 26 26 27 29 19 14 14 12 11 9 4 2
50 48 47 46 45 43 44 43 44 45 45 43 44 46 46 44 42 38 34 36 38 44 46 43 38 30 29 28 24 20 29 29 29 32 28 19 13 14 14 13 9 5 2
46 44 43 40 39 39 37 39 43 43 42 44 43 41 41 44 41 35 37 36 33 35 38 34 31 29 27 25 23 23 31 30 30 28 26 21 16 16 15 14 10 7 5
43 40 38 36 36 36 35 35 31 31 39 43 42 41 40 44 46 43 38 37 31 30 33 34 31 26 28 27 25 29 34 34 30 27 29 22 18 19 17 14 10 8 6
26 25 27 29 30 34 33 31 30 26 23 24 27 45 50 52 51 51 43 36 35 33 36 32 28 25 29 28 27 33 35 32 28 25 25 21 20 18 17 14 11 8 7
15 16 15 14 10 31 38 24 16 15 14 17 26 50 52 55 56 57 52 45 43 43 38 30 27 29 27 27 27 32 32 32 33 25 22 24 20 18 16 14 12 10 8
16 13 14 14 17 20 22 19 16 18 21 26 33 40 43 47 49 52 53 52 49 46 38 28 28 28 27 24 31 32 30 26 27 26 25 24 21 19 16 15 12 11 9
24 20 21 21 24 22 22 19 22 25 25 28 31 37 38 37 43 48 48 48 47 40 35 28 27 26 24 30 35 32 27 25 27 29 27 23 21 19 17 15 13 12 10
25 22 13 11 18 22 25 20 22 24 27 31 34 35 38 38 39 41 45 44 48 47 43 19 24 28 32 35 35 33 29 28 27 27 25 22 22 19 18 14 12 11 9
24 22 15 15 20 21 18 21 25 26 31 33 31 26 27 32 36 39 42 37 22 22 22 22 23 32 36 38 35 32 30 29 27 25 24 22 21 20 17 14 12 11 10
24 22 21 19 17 13 13 22 27 30 31 23 21 25 26 22 19 23 21 18 18 21 21 24 32 35 36 35 32 32 32 31 26 26 23 22 22 19 16 14 12 11 10
25 24 21 14 14 15 17 25 26 18 19 20 23 14 5 6 7 12 16 21 21 22 24 30 33 30 31 32 32 31 30 27 27 25 23 23 20 17 15 14 12 10 9
19 19 18 11 16 18 7 13 18 16 19 20 11 19 13 5 14 16 12 20 25 26 25 25 28 33 32 31 34 33 31 26 25 21 19 19 16 15 14 12 11 9 9
12 13 12 11 11 10 10 13 11 17 21 24 21 20 18 10 6 6 13 16 22 21 24 27 33 32 29 27 29 24 24 23 21 20 19 16 16 15 13 11 10 8 10
Wind_Direction
280 280 280 280 280 282 284 288 291 294 297 301 304 307 309 307 302 293 291 288 286 287 287 285 289 291 290 285 282 278 272 278 283 300 292 340 300 323 346 19 38 36 40
281 279 277 278 276 279 282 285 289 291 292 295 298 300 304 305 302 298 293 292 286 286 283 284 284 287 288 286 282 280 272 272 274 273 280 284 291 293 318 345 13 52 48
282 279 276 276 274 280 281 283 286 290 291 292 293 295 298 301 301 298 293 290 289 286 282 281 285 284 284 286 283 278 277 274 268 261 270 279 279 286 293 335 28 45 46
283 280 277 272 276 280 281 282 285 287 288 289 291 292 294 297 298 295 294 290 287 284 283 280 278 282 282 282 282 278 274 273 257 254 261 262 253 259 279 301 333 51 33
285 284 280 278 279 280 281 282 284 285 287 288 290 290 291 293 296 294 291 290 286 283 280 282 279 278 279 280 280 277 271 264 256 253 255 258 249 217 248 272 293 114 77
290 288 287 284 281 281 281 282 283 285 286 287 288 289 289 289 291 293 291 287 284 280 278 282 281 280 278 276 275 268 267 257 253 251 251 243 242 233 250 233 249 133 72
288 288 288 287 284 282 282 282 282 283 284 284 285 287 288 287 287 287 288 285 283 282 279 280 281 280 277 276 275 269 260 253 252 245 242 236 235 224 238 234 227 173 94
288 288 288 286 284 283 282 281 281 282 282 283 284 285 286 285 284 283 283 283 280 279 280 280 280 279 276 275 270 269 258 253 250 244 241 231 240 232 232 222 240 147 356
288 288 287 285 284 283 282 282 282 282 283 283 283 284 284 284 282 280 280 280 278 279 281 281 279 277 276 272 264 263 266 258 250 249 242 249 223 219 212 225 213 178 66
288 287 287 286 285 284 283 282 282 281 282 282 282 281 280 280 280 279 279 277 276 277 279 280 277 274 274 266 259 259 262 254 244 243 244 227 210 214 197 220 201 185 159
287 287 287 287 286 285 285 286 283 281 281 282 282 280 279 280 279 277 275 275 273 273 274 274 275 275 268 260 251 256 257 250 237 235 218 217 218 210 219 233 218 218 197
289 288 288 288 287 286 286 283 281 281 278 278 279 278 277 278 277 277 274 272 270 268 268 270 271 270 267 258 245 253 246 238 227 220 220 220 217 211 219 241 247 274 257
290 290 291 290 287 285 283 281 282 278 275 274 275 277 277 276 276 275 273 270 267 262 262 264 267 264 263 259 245 238 229 233 224 225 223 213 207 215 216 232 248 270 6
292 292 292 292 290 286 282 282 278 274 275 272 273 275 276 275 275 275 272 270 268 261 258 259 260 258 259 254 242 225 233 230 225 226 224 213 199 204 218 230 223 220 186
294 294 293 292 291 289 285 281 276 277 274 272 270 272 272 270 268 273 269 269 268 262 254 253 253 251 250 243 233 227 229 227 224 220 222 214 199 210 221 225 218 203 181
295 296 294 294 294 289 285 285 280 273 274 272 270 270 270 266 262 265 269 268 264 254 251 247 246 243 240 235 228 230 227 222 219 221 219 217 201 212 214 214 204 198 170
297 298 300 300 298 289 283 283 286 286 276 258 253 264 258 251 250 249 258 261 254 247 246 243 240 237 236 235 229 227 224 220 217 215 213 211 203 205 204 200 198 188 169
282 269 275 275 266 236 256 283 286 286 280 281 273 241 243 238 235 233 237 245 245 239 241 241 239 236 233 232 227 222 220 213 219 211 207 210 201 199 198 199 198 181 173
245 251 240 229 219 214 212 210 212 214 214 213 220 228 228 223 222 223 231 232 232 234 241 237 236 234 229 225 222 216 211 213 216 210 211 203 202 196 198 204 194 176 165
238 232 227 221 218 212 207 207 210 210 209 212 214 223 228 233 229 223 227 228 229 238 240 233 233 233 224 222 217 209 205 206 207 213 211 199 197 203 202 199 189 176 168
238 229 211 208 207 206 208 197 202 205 210 216 221 219 222 228 230 226 224 228 225 225 225 207 232 233 225 218 212 210 204 203 206 212 198 196 200 202 205 202 191 181 169
233 226 212 200 201 195 188 195 203 201 214 219 238 256 254 241 229 226 228 237 236 224 223 223 227 226 220 213 206 200 199 201 198 195 197 196 203 207 203 198 190 184 170
229 219 218 200 180 167 163 187 197 213 218 253 263 251 248 243 264 258 251 240 236 227 228 224 225 218 212 209 202 199 198 200 201 192 193 198 206 205 201 198 191 185 172
239 226 207 154 144 152 157 189 205 260 259 263 251 287 314 294 284 282 260 246 232 224 222 217 212 205 203 200 194 198 201 200 192 196 195 200 204 197 203 200 192 180 172
278 269 278 325 171 181 347 277 253 267 256 262 247 164 141 72 291 245 237 220 212 210 207 203 198 192 190 187 189 199 198 187 194 189 194 197 190 190 202 200 191 181 163
313 325 304 294 285 307 304 266 284 257 237 197 177 174 126 57 12 224 210 199 199 193 192 191 187 188 183 183 197 189 182 183 182 187 194 198 185 204 198 189 172 171 161